DELTA 1 DEB, 21373

Orbit data source: Space-Track

DELTA 1 DEB, 21373 is space debris in SSO originally from a launch on Thu, 12 Jun 1975 UTC launched from the Air Force Western Test Range (AFWTR). Debris objects in space refer to the collection of defunct objects orbiting the Earth. Examples of debris include non-operational satellites, rocket bodies, and fragments generated from explosions, collisions, or faulty payload assembly.

Loading next visibility...
Identifier
21373, 1975-052CT
Orbit
SSO
Country
Flag of USUS
Related business
Manufacturer
Unknown
Mission
Spacecraft
Bus & Motor
Unknown
Mass
Unknown
Launch date (UTC)
1975-06-12 (51 years ago)
Launch vehicle
Unknown
Launch site
Air Force Western Test Range (AFWTR)
Object type
Payload
Rocket body
Debris
Shape & HBR
Unknown shape, 0.1 m
Radar Cross Section
Medium (>0.1 m² and <1 m²)

Expand to show TLE details & history
Last TLE update: 2 days ago

TLE from 2 days ago
0 DELTA 1 DEB
1 21373U 75052CT  26171.18107330  .00000058  00000-0  20458-3 0  9990
2 21373  99.9378  65.8700 0075634  19.4526 133.4200 13.32695994704714
Epoch: 2026-06-20T04:20Z
TLE epoch observation values (Epoch: 2026-06-20T04:20:44.733Z)
Latitude
26.10752°
Longitude
-82.81521°
Altitude
1,178.942 km
Speed
7.247 km/s
True Right ascension
16h 43m 04s
True Declination
25° 58' 46"
Sunlit
Object was in full shadow at epoch
Visualization orbit readout
Latitude
Unknown
Longitude
Unknown
Altitude
Unknown
Speed
Unknown
Apparent Right ascension
Unknown
Apparent Declination
Unknown
Sunlit
N/A
Visualization observer readout
Local Sidereal Time
14:34:43
Azimuth
Unknown
Elevation
Unknown
Doppler factor
Unknown
Orbital elements
Apogee altitude
1,190.765 km
Perigee altitude
1,077.131 km
Semi-major axis
7,512.085 km
Eccentricity
0.00756
Inclination
99.9378°
RAAN
65.87°
Arg. of periapsis
19.4526°
True anomaly
134.04544°
Mean anomaly
133.42°
Eccentric anomaly
133.73313°
Mean motion
3.33352 °/min
Orbital period
107.99 mins
BSTAR
0.00020458
Loading maneuver chart data...
Computing Atmospheric mass density...
Loading historical data...
Loading historical data...
Loading historical data...
Loading historical data...
Loading historical data...
Loading historical data...
Loading historical data...

Documentation

Showing up to 5 results
|